Location: Arboucave
(43.6130°N, 0.4343°W)
Time: 05:44:51
(UTC+00:00)

Cosmos 540 Rocket - Pass Details

Date: 17 November 2025
Orbit: 735 x 748 km, 74.1° (Epoch: 04 December)

Event Time Altitude Azimuth Distance (km) Brightness Sun altitude
Rises 17:23:00 0° 344° (NNW) 3,198 6.7 -8.9°
Reaches altitude 10° 17:25:27 10° 349° (N) 2,269 5.9 -9.4°
Maximum altitude 17:30:26 50° 65° (ENE) 947 3.6 -10.2°
Drops below altitude 10° 17:35:22 10° 141° (SE) 2,246 5.7 -11.1°
Sets 17:37:47 0° 146° (SSE) 3,163 6.5 -11.5°
